AALTO-1

Last updated on Mon Sep 02 2024 00:03:40 GMT+0000 (Coordinated Universal Time)

1 42775U 17036L 24245.29764800 .13343114 24078-5 23541-3 0 9999 2 42775 97.0675 277.5924 0011337 248.5174 111.4922 16.47090026401159
UTC large
Height (km)
Speed (km/s)
/
Latitude / Longitude
Inclination (degrees)
Orbital Period (minutes)
Azimuth
Elevation
Range (km)
Doppler Factor

Next 0 passes for location: London (51.5072 / 0.1276)

Sorry there are no passes over London.